CFG9KE EDDF-LKPR

Flight info

Callsign CFG9KE
Flight time 0h 45m
Altitude 29000
Route SULUS6F SULUS Z650 TONSU Z35 ODOMO DCT LOMKI
Aircraft A321/M-SDE3FGHIRWY/LB1

Departure

Time 2026-04-15 13:25
Airport Frankfurt Main Airport (EDDF)

Arrival

Time 2026-04-15 14:11
Airport Václav Havel Airport Prague (LKPR)
Time Latitude Longitude Altitude Speed Heading
2026-04-15 13:01 50.04608 8.56771 356 ft 0 kts 295°
2026-04-15 13:02 50.04608 8.56772 357 ft 0 kts 294°
2026-04-15 13:16 50.04604 8.56783 358 ft 4 kts 294°
2026-04-15 13:16 50.04593 8.56822 359 ft 4 kts 294°
2026-04-15 13:17 50.04583 8.56857 356 ft 4 kts 277°
2026-04-15 13:17 50.04589 8.56892 361 ft 4 kts 221°
2026-04-15 13:17 50.04611 8.56912 356 ft 4 kts 196°
2026-04-15 13:17 50.04631 8.56920 364 ft 4 kts 199°
2026-04-15 13:18 50.04652 8.56935 356 ft 1 kts 206°
2026-04-15 13:21 50.04646 8.56930 356 ft 3 kts 205°
2026-04-15 13:21 50.04615 8.56914 356 ft 7 kts 194°
2026-04-15 13:21 50.04561 8.56894 361 ft 8 kts 194°
2026-04-15 13:21 50.04483 8.56865 359 ft 16 kts 192°
2026-04-15 13:22 50.04335 8.56824 360 ft 22 kts 192°
2026-04-15 13:22 50.04237 8.56737 361 ft 19 kts 246°
2026-04-15 13:22 50.04172 8.56467 359 ft 33 kts 250°
2026-04-15 13:22 50.04088 8.56116 353 ft 35 kts 249°
2026-04-15 13:23 50.04003 8.55759 355 ft 35 kts 249°
2026-04-15 13:23 50.03917 8.55403 354 ft 35 kts 250°
2026-04-15 13:23 50.03834 8.55054 357 ft 34 kts 249°
2026-04-15 13:23 50.03753 8.54718 347 ft 32 kts 249°
2026-04-15 13:24 50.03685 8.54440 342 ft 20 kts 249°
2026-04-15 13:24 50.03604 8.54315 349 ft 17 kts 172°
2026-04-15 13:24 50.03507 8.54366 353 ft 11 kts 155°
2026-04-15 13:24 50.03501 8.54462 346 ft 13 kts 71°
2026-04-15 13:25 50.03606 8.54901 347 ft 80 kts 69°
2026-04-15 13:25 50.03874 8.56021 357 ft 138 kts 69°
2026-04-15 13:25 50.04261 8.57642 470 ft 173 kts 69°
2026-04-15 13:25 50.04673 8.59390 1162 ft 171 kts 69°
2026-04-15 13:26 50.05067 8.61137 1828 ft 175 kts 70°
2026-04-15 13:26 50.05491 8.63035 2167 ft 196 kts 70°
2026-04-15 13:26 50.05966 8.65164 2464 ft 220 kts 70°
2026-04-15 13:26 50.06479 8.67470 3192 ft 226 kts 71°
2026-04-15 13:27 50.06992 8.69800 3935 ft 228 kts 73°
2026-04-15 13:27 50.07157 8.72266 4636 ft 238 kts 97°
2026-04-15 13:27 50.06877 8.74923 5094 ft 258 kts 101°
2026-04-15 13:27 50.06551 8.77710 5864 ft 265 kts 101°
2026-04-15 13:28 50.06212 8.80561 6710 ft 270 kts 101°
2026-04-15 13:28 50.05872 8.83461 7588 ft 274 kts 99°
2026-04-15 13:28 50.05789 8.86455 8395 ft 280 kts 89°
2026-04-15 13:28 50.05844 8.89472 9187 ft 285 kts 89°
2026-04-15 13:29 50.05901 8.92620 9968 ft 290 kts 89°
2026-04-15 13:29 50.05957 8.95753 10605 ft 299 kts 89°
2026-04-15 13:29 50.06010 8.98866 11900 ft 277 kts 89°
2026-04-15 13:29 50.06057 9.01823 12818 ft 279 kts 89°
2026-04-15 13:30 50.06106 9.04966 13052 ft 302 kts 89°
2026-04-15 13:30 50.06156 9.08355 13265 ft 325 kts 89°
2026-04-15 13:30 50.06208 9.11991 13436 ft 347 kts 89°
2026-04-15 13:30 50.06264 9.15848 13761 ft 363 kts 89°
2026-04-15 13:31 50.06323 9.19806 14382 ft 369 kts 89°
2026-04-15 13:31 50.06383 9.23819 15068 ft 373 kts 89°
2026-04-15 13:31 50.06441 9.27885 15761 ft 377 kts 89°
2026-04-15 13:31 50.06498 9.31982 16421 ft 380 kts 89°
2026-04-15 13:32 50.06550 9.36110 17059 ft 384 kts 89°
2026-04-15 13:32 50.06602 9.40281 17686 ft 388 kts 89°
2026-04-15 13:32 50.06655 9.44496 18267 ft 391 kts 89°
2026-04-15 13:32 50.06709 9.48751 18864 ft 395 kts 89°
2026-04-15 13:33 50.06758 9.53049 19445 ft 398 kts 89°
2026-04-15 13:33 50.06804 9.57367 19993 ft 401 kts 89°
2026-04-15 13:33 50.06847 9.61727 20505 ft 404 kts 89°
2026-04-15 13:33 50.06890 9.66120 21027 ft 408 kts 89°
2026-04-15 13:34 50.06935 9.70542 21543 ft 410 kts 89°
2026-04-15 13:34 50.06981 9.75003 22059 ft 413 kts 89°
2026-04-15 13:34 50.07024 9.79490 22570 ft 416 kts 89°
2026-04-15 13:34 50.07063 9.84004 23057 ft 419 kts 88°
2026-04-15 13:35 50.07099 9.88553 23512 ft 422 kts 88°
2026-04-15 13:35 50.07136 9.93132 23975 ft 425 kts 88°
2026-04-15 13:35 50.07171 9.97746 24410 ft 428 kts 88°
2026-04-15 13:35 50.07204 10.02399 24836 ft 430 kts 88°
2026-04-15 13:36 50.07237 10.07075 25262 ft 433 kts 88°
2026-04-15 13:36 50.07268 10.11767 25677 ft 436 kts 88°
2026-04-15 13:36 50.07293 10.16500 26073 ft 438 kts 88°
2026-04-15 13:36 50.07314 10.21195 26451 ft 441 kts 87°
2026-04-15 13:37 50.07337 10.25981 26829 ft 443 kts 87°
2026-04-15 13:37 50.07366 10.30793 27206 ft 446 kts 87°
2026-04-15 13:37 50.07395 10.35635 27568 ft 449 kts 86°
2026-04-15 13:37 50.07419 10.40506 27933 ft 450 kts 86°
2026-04-15 13:38 50.07442 10.45402 28277 ft 453 kts 86°
2026-04-15 13:38 50.07464 10.50316 28616 ft 455 kts 86°
2026-04-15 13:38 50.07484 10.55256 28932 ft 457 kts 86°
2026-04-15 13:38 50.07500 10.60219 29170 ft 460 kts 86°
2026-04-15 13:39 50.07452 10.70162 29219 ft 462 kts 91°
2026-04-15 13:39 50.06050 10.79963 29224 ft 467 kts 105°
2026-04-15 13:40 50.04009 10.89562 29220 ft 467 kts 105°
2026-04-15 13:40 50.01973 10.99159 29231 ft 467 kts 105°
2026-04-15 13:41 49.99940 11.08733 29223 ft 466 kts 105°
2026-04-15 13:41 49.97890 11.18297 29241 ft 465 kts 104°
2026-04-15 13:42 49.96805 11.28049 29251 ft 455 kts 88°
2026-04-15 13:42 49.96511 11.37848 29248 ft 453 kts 89°
2026-04-15 13:43 49.96201 11.47621 29245 ft 453 kts 89°
2026-04-15 13:43 49.95872 11.57374 29243 ft 452 kts 89°
2026-04-15 13:44 49.95538 11.67127 29244 ft 452 kts 89°
2026-04-15 13:44 49.95203 11.76879 29233 ft 452 kts 89°
2026-04-15 13:45 49.94852 11.86605 29227 ft 451 kts 89°
2026-04-15 13:47 49.93950 12.25491 29214 ft 451 kts 88°
2026-04-15 13:47 49.93716 12.35210 29216 ft 451 kts 88°
2026-04-15 13:48 49.93453 12.44938 29221 ft 451 kts 88°
2026-04-15 13:48 49.93162 12.54684 29231 ft 452 kts 89°
2026-04-15 13:49 49.92868 12.64412 29237 ft 451 kts 89°
2026-04-15 13:49 49.92626 12.72481 29236 ft 451 kts 89°
2026-04-15 13:50 49.92330 12.82189 29237 ft 450 kts 89°
2026-04-15 13:50 49.92024 12.91891 29237 ft 450 kts 89°
2026-04-15 13:51 49.91699 13.01576 29237 ft 449 kts 89°
2026-04-15 13:51 49.91535 13.06404 29038 ft 445 kts 89°
2026-04-15 13:51 49.91375 13.11175 28787 ft 442 kts 89°
2026-04-15 13:52 49.91215 13.15922 28536 ft 440 kts 90°
2026-04-15 13:52 49.91054 13.20653 28287 ft 438 kts 90°
2026-04-15 13:52 49.90890 13.25364 28028 ft 437 kts 90°
2026-04-15 13:52 49.90724 13.30056 27751 ft 434 kts 90°
2026-04-15 13:53 49.90556 13.34704 27172 ft 430 kts 90°
2026-04-15 13:53 49.90397 13.39317 26577 ft 426 kts 88°
2026-04-15 13:53 49.90577 13.43865 25998 ft 419 kts 78°
2026-04-15 13:53 49.91254 13.48210 25435 ft 412 kts 69°
2026-04-15 13:54 49.92378 13.52260 24881 ft 405 kts 59°
2026-04-15 13:54 49.93886 13.55909 24353 ft 399 kts 51°
2026-04-15 13:54 49.95567 13.59295 23831 ft 394 kts 51°
2026-04-15 13:54 49.97231 13.62656 23344 ft 389 kts 51°
2026-04-15 13:55 49.98845 13.65927 22862 ft 385 kts 51°
2026-04-15 13:55 50.00481 13.69250 22416 ft 379 kts 51°
2026-04-15 13:55 50.02072 13.72484 21983 ft 374 kts 51°
2026-04-15 13:55 50.03623 13.75639 21559 ft 370 kts 51°
2026-04-15 13:56 50.05180 13.78811 21142 ft 367 kts 51°
2026-04-15 13:56 50.06619 13.82077 20720 ft 366 kts 59°
2026-04-15 13:56 50.07687 13.85666 20284 ft 365 kts 69°
2026-04-15 13:56 50.08352 13.89483 19854 ft 365 kts 78°
2026-04-15 13:57 50.08789 13.93372 19406 ft 364 kts 79°
2026-04-15 13:57 50.09226 13.97237 18966 ft 362 kts 79°
2026-04-15 13:57 50.09666 14.01093 18511 ft 361 kts 79°
2026-04-15 13:57 50.10104 14.04929 18057 ft 359 kts 79°
2026-04-15 13:58 50.10545 14.08799 17592 ft 357 kts 79°
2026-04-15 13:58 50.10973 14.12594 17132 ft 355 kts 79°
2026-04-15 13:58 50.11389 14.16320 16681 ft 353 kts 79°
2026-04-15 13:58 50.11805 14.20080 16225 ft 351 kts 80°
2026-04-15 13:59 50.12216 14.23819 15774 ft 349 kts 80°
2026-04-15 13:59 50.12631 14.27592 15345 ft 350 kts 80°
2026-04-15 13:59 50.13055 14.31421 15222 ft 364 kts 80°
2026-04-15 13:59 50.13282 14.35321 15247 ft 368 kts 91°
2026-04-15 14:00 50.12954 14.39276 15120 ft 370 kts 103°
2026-04-15 14:00 50.12073 14.43079 14216 ft 378 kts 118°
2026-04-15 14:00 50.10612 14.46467 13490 ft 375 kts 129°
2026-04-15 14:00 50.09029 14.49643 12289 ft 368 kts 128°
2026-04-15 14:01 50.06123 14.55593 11354 ft 320 kts 128°
2026-04-15 14:01 50.04789 14.58347 10918 ft 319 kts 128°
2026-04-15 14:01 50.03466 14.61066 10593 ft 310 kts 128°
2026-04-15 14:02 50.02187 14.63687 10384 ft 300 kts 128°
2026-04-15 14:02 50.00937 14.66245 10125 ft 294 kts 128°
2026-04-15 14:02 49.99710 14.68759 9787 ft 291 kts 127°
2026-04-15 14:02 49.98495 14.71246 9500 ft 285 kts 127°
2026-04-15 14:03 49.97212 14.73414 9258 ft 262 kts 145°
2026-04-15 14:03 49.95632 14.74554 9018 ft 245 kts 168°
2026-04-15 14:03 49.93958 14.74630 8777 ft 239 kts 190°
2026-04-15 14:03 49.92421 14.73727 8421 ft 236 kts 213°
2026-04-15 14:04 49.91227 14.72006 8046 ft 235 kts 234°
2026-04-15 14:04 49.90560 14.69724 7687 ft 233 kts 258°
2026-04-15 14:04 49.90533 14.67242 7310 ft 231 kts 281°
2026-04-15 14:04 49.91132 14.64952 6936 ft 230 kts 303°
2026-04-15 14:05 49.92067 14.62962 6665 ft 232 kts 308°
2026-04-15 14:05 49.93050 14.60999 6371 ft 228 kts 308°
2026-04-15 14:05 49.94006 14.59061 6081 ft 224 kts 307°
2026-04-15 14:05 49.94939 14.57155 5772 ft 220 kts 307°
2026-04-15 14:06 49.95858 14.55276 5476 ft 217 kts 307°
2026-04-15 14:06 49.96760 14.53425 5205 ft 214 kts 308°
2026-04-15 14:06 49.97652 14.51602 4933 ft 209 kts 307°
2026-04-15 14:06 49.98513 14.49839 4659 ft 200 kts 308°
2026-04-15 14:07 49.99341 14.48145 4357 ft 195 kts 307°
2026-04-15 14:07 50.00150 14.46488 4115 ft 190 kts 308°
2026-04-15 14:07 50.00927 14.44890 3889 ft 180 kts 308°
2026-04-15 14:07 50.01670 14.43363 3640 ft 173 kts 307°
2026-04-15 14:08 50.02388 14.41886 3411 ft 170 kts 308°
2026-04-15 14:08 50.03099 14.40423 3186 ft 169 kts 308°
2026-04-15 14:08 50.03804 14.38973 2948 ft 168 kts 308°
2026-04-15 14:08 50.04505 14.37533 2740 ft 166 kts 308°
2026-04-15 14:09 50.05172 14.36158 2518 ft 152 kts 308°
2026-04-15 14:09 50.05790 14.34886 2333 ft 144 kts 308°
2026-04-15 14:09 50.06387 14.33657 2141 ft 141 kts 308°
2026-04-15 14:09 50.06976 14.32443 1956 ft 140 kts 308°
2026-04-15 14:10 50.07561 14.31238 1776 ft 140 kts 308°
2026-04-15 14:10 50.08145 14.30032 1589 ft 140 kts 308°
2026-04-15 14:10 50.08728 14.28826 1405 ft 139 kts 308°
2026-04-15 14:10 50.09307 14.27625 1217 ft 137 kts 307°
2026-04-15 14:11 50.09807 14.26592 1207 ft 94 kts 307°
2026-04-15 14:11 50.10086 14.26015 1191 ft 45 kts 307°
2026-04-15 14:11 50.10237 14.25732 1188 ft 28 kts 326°
2026-04-15 14:11 50.10386 14.25659 1184 ft 18 kts 356°
2026-04-15 14:12 50.10479 14.25720 1177 ft 15 kts 68°
2026-04-15 14:12 50.10504 14.25889 1176 ft 17 kts 79°
2026-04-15 14:12 50.10527 14.26076 1174 ft 18 kts 79°
2026-04-15 14:12 50.10540 14.26213 1173 ft 7 kts 75°
2026-04-15 14:13 50.10574 14.26261 1174 ft 6 kts 34°
2026-04-15 14:13 50.10590 14.26278 1170 ft 1 kts 35°